Flag for Germany Weather past 2 weeks in Lübbecke, North Rhine-Westphalia, Germany

Now
55 °F

Cool.


Feels Like: 55 °F
Forecast: 54 / 69 °F
Wind: 5 mph from South

Location: Bueckeburg

Current Time: Oct 2, 2014 at 3:13:12 AM

Latest Report: Oct 2, 2014 at 2:20 AM


Visibility: 2 mi

Pressure: 30.36 "Hg

Humidity: 94%

Dew point: 54 °F

Location of LübbeckeLocation

Historic Weather in Lübbecke — Graph

°F

Lübbecke temperature yesterday

Maximum temperature yesterday: 68 °F (at 3:20 PM)
Minimum temperature yesterday: 54 °F (at 1:20 AM)
Average temperature yesterday: 59 °F

Past Weeks' High & Low Weather Summary

 TemperatureHumidityPressure
High79 °F (Sep 18, 4:20 PM)100% (Sep 17, 6:20 AM)30.39 "Hg (Sep 17, 6:20 AM)
Low43 °F (Sep 23, 6:20 AM)49% (Sep 27, 4:20 PM)29.80 "Hg (Sep 24, 5:20 PM)
Average60 °F81%30.07 "Hg
* Reported Sep 17 1:20 AM — Oct 2 1:20 AM, Lübbecke, Weather by CustomWeather, © 2014

Note: Actual official high and low records may vary slightly from our data, if they occured in-between our weather recording intervals... More about our weather records

Advertising

Lübbecke weather history for previous 24 hours

 ConditionsComfort  
Time TempWeatherWind HumidityBarometerVisibility
1:20 AM
Oct 2
57 °FCool.5 mph94%30.36 "Hg2 mi
12:20 AM55 °FCool.5 mph94%30.36 "Hg1 mi
11:20 PM
Oct 1
55 °FPassing clouds.3 mph94%30.36 "Hg5 mi
10:20 PM55 °FPassing clouds.5 mph94%30.33 "Hg6 mi
9:20 PM57 °FPassing clouds.2 mph88%30.33 "HgN/A
8:20 PM59 °FPassing clouds.1 mph88%30.33 "HgN/A
7:20 PM59 °FPassing clouds.5 mph88%30.30 "HgN/A
6:20 PM64 °FPassing clouds.5 mph73%30.30 "HgN/A
5:20 PM68 °FPassing clouds.5 mph69%30.30 "HgN/A
4:20 PM68 °FPassing clouds.5 mph69%30.27 "HgN/A
3:20 PM68 °FScattered clouds.6 mph69%30.30 "Hg6 mi
2:20 PM66 °FScattered clouds.6 mph73%30.30 "Hg5 mi
1:20 PM63 °FBroken clouds.3 mph83%30.30 "Hg4 mi
12:20 PM61 °FPartly sunny.3 mph83%30.33 "Hg4 mi
11:20 AM61 °FPartly sunny.6 mph83%30.30 "Hg4 mi
10:56 AM61 °FFog.6 mph83%30.30 "Hg3 mi
10:20 AM61 °FFog.6 mph83%30.30 "Hg3 mi
9:20 AM59 °FFog.6 mph88%30.30 "Hg3 mi
8:20 AM57 °FFog.5 mph88%30.30 "Hg2 mi
7:20 AM54 °FFog.1 mph94%30.27 "Hg2 mi
6:48 AM54 °FFog.1 mph100%30.27 "Hg2 mi
6:20 AM55 °FFog.5 mph94%30.27 "Hg3 mi
5:20 AM57 °FPassing clouds.7 mph88%30.30 "Hg5 mi
4:20 AM54 °FCool.5 mph94%30.30 "Hg4 mi
3:20 AM54 °FCool.5 mph94%30.30 "Hg4 mi
Weather by CustomWeather, © 2014

See weather overviewHow to use our weather pages